Wind_Speed
133 132 131 130 129 128 126 125 123 121 119 117 114 112 110 108 106 105 103 102 100 100 99 99 98 98 98 98 98 98 98 98 99 99 99 99 98 98 97 96 96 95 95 94 94 93 93 92 91 90 89 89 89 89 89 89 89 89 89 88 88 88 89 89 89 89 89 89 89 89 89 89 90 90 91 91 92 92 93 94 96 97 98 99 100 102
131 130 128 127 125 123 121 119 117 115 113 111 109 107 105 103 101 100 99 98 97 97 97 97 97 97 97 97 96 96 96 96 96 96 96 96 95 94 93 93 92 91 91 91 90 90 89 89 88 88 87 87 87 87 87 88 88 88 87 87 86 86 87 87 87 87 87 87 86 86 86 87 87 88 88 89 89 90 91 92 93 94 95 96 97 99
128 126 124 122 119 117 115 113 111 110 108 106 104 102 100 99 98 97 96 95 95 95 95 95 95 95 95 95 95 94 94 93 93 92 92 92 91 91 90 89 89 88 88 87 87 87 86 86 86 86 86 85 86 86 86 86 87 86 86 85 85 85 85 85 86 86 85 85 84 84 84 85 85 86 86 87 87 88 89 90 91 92 93 94 94 96
123 121 119 116 113 111 109 108 106 105 103 101 100 98 97 96 95 94 94 93 93 93 94 94 94 94 93 93 92 92 91 90 89 89 88 88 87 87 87 86 86 85 85 85 84 84 84 84 84 84 84 85 85 85 86 86 86 85 85 84 84 83 83 84 84 84 83 83 82 82 82 83 84 84 85 85 85 86 87 87 88 89 90 91 92 93
117 115 113 111 109 106 105 103 102 101 99 98 97 96 95 94 93 92 92 92 91 92 92 92 92 92 91 90 90 89 88 87 86 85 85 85 84 84 84 84 83 83 83 83 83 82 82 82 83 83 83 84 85 85 85 85 85 84 84 83 82 82 81 82 82 82 82 81 80 80 80 81 82 83 83 83 84 84 85 85 86 87 88 88 89 90
112 110 108 106 104 103 101 100 98 97 96 95 94 93 93 92 92 91 90 90 90 90 90 90 89 89 89 88 87 86 85 84 83 82 82 82 82 82 82 82 82 81 81 81 81 81 81 81 81 82 83 83 84 84 85 84 84 83 82 81 80 80 80 80 80 80 80 79 79 78 79 79 80 81 81 82 82 82 83 83 84 85 85 86 87 88
107 105 103 102 101 99 98 97 96 95 95 94 93 92 91 91 90 89 89 88 88 88 88 88 87 86 86 85 84 83 82 81 80 80 80 80 80 80 80 80 80 80 80 80 79 79 80 80 80 81 82 82 83 83 83 83 82 81 80 79 79 78 78 78 78 78 78 78 77 77 77 78 78 79 80 80 80 80 81 82 82 83 83 84 84 85
103 101 99 99 98 97 96 95 95 94 93 93 92 91 90 89 88 87 87 87 87 87 86 86 85 84 83 83 82 81 80 79 78 77 77 78 78 79 79 79 79 78 78 78 78 78 78 78 79 79 80 81 81 82 82 81 80 79 78 77 76 76 76 76 77 77 77 76 75 75 75 76 76 77 77 78 78 79 79 80 80 81 81 82 82 83
100 98 97 96 95 95 94 94 93 93 92 92 91 89 88 87 86 85 85 85 85 85 85 84 83 82 81 81 80 79 78 76 75 75 75 76 76 77 77 77 77 76 76 75 75 75 75 76 76 77 78 78 79 79 79 79 78 77 76 75 74 74 74 74 75 75 75 74 74 73 73 74 74 75 75 76 77 77 78 78 79 79 79 79 80 80
97 96 95 94 94 93 93 93 92 91 90 90 89 88 87 86 85 84 83 83 83 83 83 82 81 80 79 79 78 77 76 74 73 73 73 73 74 74 75 75 74 74 73 73 72 72 73 73 73 74 74 75 76 76 76 76 75 74 73 73 72 72 72 73 73 73 73 73 72 72 71 72 72 73 74 75 76 76 76 77 77 77 77 77 78 78
95 94 93 93 92 92 92 91 90 90 89 88 88 87 86 85 84 83 82 81 81 81 81 80 79 78 77 77 76 75 73 72 71 71 71 71 72 72 72 71 70 70 70 70 70 70 70 70 70 70 71 71 72 73 73 72 72 71 70 70 70 70 70 71 71 72 71 71 70 69 69 70 70 72 73 73 74 74 75 75 75 75 75 76 76 76
93 92 92 91 91 90 90 89 89 88 87 87 86 85 84 84 83 82 81 80 79 78 78 78 77 77 76 75 73 72 70 69 69 69 69 70 70 69 68 67 66 66 66 66 67 67 67 67 67 67 67 68 68 69 69 69 69 68 68 67 67 67 68 68 69 69 69 68 67 67 67 68 69 70 71 72 72 73 73 73 73 74 74 74 74 75
91 91 90 90 89 89 88 87 87 86 85 85 84 83 83 82 82 81 80 79 77 77 76 75 75 75 74 73 72 69 67 66 66 66 67 68 68 67 65 63 62 63 63 63 64 64 64 63 63 63 64 64 65 65 65 66 65 65 65 64 65 65 65 66 66 66 66 65 64 64 65 66 67 68 69 70 70 71 71 72 72 72 72 73 73 74
90 89 89 88 87 87 86 86 85 84 83 83 82 81 81 80 80 79 78 77 76 75 74 73 72 72 73 72 69 67 64 63 63 64 65 66 65 64 61 60 60 60 61 61 61 61 60 60 60 60 60 61 61 62 62 62 62 62 62 62 62 62 62 63 63 63 63 62 62 62 63 64 66 67 68 68 69 69 70 70 70 71 71 72 72 73
88 87 87 86 85 85 84 84 83 82 81 81 80 79 79 79 78 77 76 75 74 73 71 70 70 70 70 70 67 64 61 60 61 62 63 63 62 60 59 58 58 59 59 59 58 57 57 57 57 57 57 58 58 58 58 58 59 59 59 59 59 60 60 60 60 60 60 59 59 60 61 63 64 65 66 67 67 68 68 68 69 69 70 70 71 71
86 85 85 84 83 83 83 82 82 81 79 79 78 77 77 77 76 75 74 72 71 70 69 68 68 68 68 67 65 62 59 58 59 60 61 61 59 58 56 56 56 57 57 56 55 54 54 54 54 54 54 55 55 55 55 55 55 56 56 56 57 57 57 58 58 57 57 57 58 59 60 61 63 64 64 65 66 66 67 67 68 68 69 69 70 70
84 83 83 82 81 81 81 81 80 79 78 77 76 76 75 75 74 73 71 70 68 67 66 66 65 65 65 65 63 61 58 57 57 58 58 58 57 55 55 54 55 55 54 53 52 52 52 51 51 52 52 52 52 52 52 52 53 53 54 54 54 55 55 55 55 55 55 56 57 58 59 60 61 62 63 64 64 65 65 66 66 67 68 68 69 69
82 82 81 80 80 79 79 79 78 77 76 75 74 74 73 72 71 70 68 67 65 64 64 63 63 62 62 62 61 59 57 56 56 56 56 55 54 53 53 53 52 52 52 51 50 49 49 49 49 49 49 49 49 49 49 50 50 51 51 52 52 53 53 53 53 53 54 55 56 57 58 59 60 61 61 62 63 63 64 65 65 66 67 67 68 68
80 80 80 79 78 77 77 77 76 75 74 73 72 71 71 70 69 67 66 64 63 62 61 61 60 60 59 59 58 57 56 55 54 54 53 53 52 51 51 50 50 49 49 48 48 47 47 46 46 46 46 46 46 47 47 47 48 49 49 50 51 51 51 52 52 53 53 54 55 56 57 58 59 60 61 62 62 63 64 64 65 65 66 66 67 67
79 78 78 78 77 76 75 75 74 73 72 71 70 69 68 67 66 65 63 62 61 60 59 58 58 57 57 56 56 55 54 53 52 52 51 51 50 49 49 48 47 47 46 46 46 45 45 44 44 44 44 44 44 44 45 46 46 47 48 48 49 50 50 51 51 52 53 54 55 56 57 58 59 60 61 62 63 63 64 64 65 65 65 66 66 67
78 77 76 76 75 74 73 72 72 71 70 68 67 66 65 64 63 62 61 60 59 58 57 56 56 55 55 54 53 53 52 51 50 49 49 48 48 47 47 46 45 44 44 44 43 43 42 42 42 42 41 42 42 43 43 44 45 45 46 47 48 49 50 50 51 52 53 54 55 56 57 58 59 60 61 62 62 63 63 64 64 65 65 66 66 67
77 76 75 74 73 72 71 70 69 68 67 66 64 63 62 61 60 59 58 57 57 56 55 54 53 53 52 51 51 50 49 48 48 47 47 46 46 45 44 44 43 42 42 42 41 41 40 40 40 40 40 40 40 41 42 42 43 44 45 46 47 48 49 50 51 52 53 54 55 56 57 58 59 59 60 61 62 62 63 63 64 64 65 65 66 67
75 74 73 72 71 70 69 68 66 65 64 63 62 61 59 58 57 56 55 55 55 54 53 52 51 50 49 49 48 47 47 46 45 45 44 44 43 43 42 42 41 40 40 40 39 39 39 38 38 38 38 38 39 39 40 41 42 43 44 45 46 48 49 50 51 51 52 53 54 55 56 57 57 58 59 60 60 61 61 62 63 64 64 65 66 67
74 72 71 70 69 68 66 65 64 62 61 60 59 58 57 56 54 53 53 52 52 51 51 50 49 48 47 46 46 45 44 43 43 42 42 41 41 41 40 39 39 38 38 38 37 37 37 37 37 37 37 37 37 38 39 40 41 42 43 44 45 46 47 49 49 50 51 52 53 54 55 56 56 57 58 58 59 60 60 61 62 62 63 64 65 66
72 70 69 68 66 65 64 62 61 59 58 57 57 56 55 53 52 51 50 50 49 49 48 47 46 45 45 44 43 43 42 41 41 40 40 39 39 39 38 38 37 36 36 36 36 35 35 35 35 35 35 36 36 37 38 38 39 40 42 43 44 45 46 47 48 49 50 51 52 53 53 54 55 56 56 57 58 58 59 59 60 61 61 62 63 64
69 68 66 65 64 62 61 59 58 57 55 55 54 53 52 51 50 49 48 47 46 46 45 45 44 43 42 42 41 40 40 39 39 38 38 37 37 36 36 35 35 34 34 34 34 33 33 33 34 34 34 34 35 36 36 37 38 39 40 41 43 44 45 46 47 47 48 49 50 51 52 53 54 54 55 55 56 57 57 58 58 59 59 60 60 61
67 66 64 62 61 59 58 57 55 54 53 52 51 51 50 49 47 46 45 44 44 43 43 42 42 41 40 39 38 38 37 37 36 36 35 35 34 34 34 33 33 32 32 32 32 32 31 32 32 32 33 33 34 35 35 36 37 38 39 40 41 42 43 44 45 46 47 48 49 50 50 51 52 52 53 53 54 55 55 56 56 57 57 58 58 59
65 63 61 60 58 57 55 54 53 52 51 50 49 48 47 46 45 44 43 42 42 41 40 40 39 39 38 37 36 36 35 35 35 34 33 33 32 32 31 31 30 30 30 30 30 30 30 30 30 31 32 32 33 34 34 35 36 37 38 39 40 41 42 43 44 45 45 46 47 48 48 49 50 50 51 52 52 53 53 54 54 54 55 55 55 56
63 61 59 57 56 55 53 52 51 50 48 47 46 45 45 43 42 41 41 40 39 39 38 38 37 37 36 35 34 34 33 33 32 32 31 30 30 29 29 28 28 28 27 28 28 28 28 28 29 30 30 31 32 33 33 34 35 36 37 38 39 40 40 41 42 43 44 44 45 46 47 47 48 49 49 50 50 51 51 51 52 52 52 53 53 54
60 58 57 55 54 52 51 50 49 47 46 45 44 43 42 41 40 39 38 38 37 37 36 36 35 35 34 33 32 32 31 31 30 29 29 28 27 27 26 26 26 26 25 25 25 26 26 27 27 28 29 30 31 31 32 33 34 35 35 36 37 38 39 40 41 41 42 43 43 44 45 45 46 47 47 48 48 49 49 49 50 50 50 50 51 51
58 56 54 53 52 50 49 48 47 45 44 43 42 41 40 39 38 37 37 36 35 35 35 34 34 33 32 31 31 30 29 29 28 27 26 26 25 25 24 24 23 24 24 23 23 24 24 25 26 27 27 28 29 30 31 31 32 33 34 34 35 36 37 38 39 39 40 41 42 42 43 44 44 45 46 46 47 47 47 48 48 48 48 48 49 50
55 54 52 51 49 48 47 46 45 43 42 41 40 39 38 37 36 36 35 34 34 33 33 32 32 31 30 30 29 28 28 27 26 25 24 24 23 23 22 22 22 22 22 22 22 22 23 23 24 25 26 27 28 28 29 29 30 31 31 32 33 34 35 36 37 38 38 39 40 41 41 42 43 43 44 45 45 45 45 46 46 46 47 47 48 49
53 51 50 49 48 46 45 44 43 41 40 39 38 37 36 35 35 34 33 33 32 32 31 30 30 29 29 28 27 26 26 25 24 23 22 22 21 21 20 20 20 20 20 20 21 21 22 22 23 24 25 25 26 26 27 27 28 29 30 31 32 32 33 34 35 36 37 37 38 39 40 41 41 42 42 43 43 44 44 44 44 45 46 46 47 48
50 49 48 47 45 44 43 42 40 39 38 37 36 35 35 34 33 32 32 31 31 30 29 29 28 27 27 26 25 24 24 23 22 21 20 20 19 19 19 19 18 19 19 19 19 20 21 21 22 23 23 24 24 25 25 26 27 27 28 29 30 31 32 32 33 34 35 36 37 37 38 39 40 40 41 41 42 42 42 43 43 44 45 45 46 47
48 47 46 45 43 42 41 40 39 38 37 36 35 34 33 32 32 31 30 30 29 28 28 27 26 25 25 24 23 23 22 21 20 19 18 18 17 17 17 17 17 18 18 18 18 19 19 20 21 22 22 22 23 23 24 25 25 26 27 28 29 29 30 31 31 32 33 34 35 36 37 37 38 38 39 39 40 40 41 41 42 42 43 44 44 45
46 45 44 43 41 40 39 38 37 36 35 34 34 33 32 31 30 29 29 28 27 26 26 25 24 24 23 22 21 21 20 19 18 18 17 16 16 16 16 16 16 17 17 17 17 18 18 19 20 20 21 21 21 22 23 24 25 25 26 27 28 28 29 30 30 31 32 33 33 34 35 35 36 36 37 37 38 38 39 40 40 41 41 42 42 43
44 43 42 41 40 38 37 36 35 35 34 33 32 31 30 30 29 28 27 26 25 25 24 23 22 22 21 20 20 19 18 17 17 16 16 15 15 15 15 15 15 16 16 16 16 17 17 18 18 19 19 20 20 21 22 23 24 25 26 26 27 28 28 29 30 30 31 31 32 33 33 34 34 35 35 36 36 36 37 38 38 39 39 40 40 41
43 41 40 39 38 37 36 35 34 33 33 32 31 30 29 28 27 26 26 25 24 23 22 22 21 20 19 19 18 17 17 16 15 15 14 14 14 14 14 14 14 14 15 15 15 16 16 16 17 17 18 19 20 21 21 22 23 24 25 26 26 27 28 28 29 29 30 30 31 31 32 32 32 33 33 34 34 35 35 36 36 37 38 38 39 40
41 40 39 38 36 36 35 34 33 32 31 31 30 29 28 27 26 25 24 23 22 22 21 20 19 19 18 17 16 16 15 15 14 13 13 13 12 12 12 13 13 13 14 14 14 14 15 15 15 16 17 18 19 20 21 22 22 23 24 25 26 27 27 28 28 29 29 29 30 30 30 31 31 31 32 32 33 33 34 34 35 36 36 37 38 39
39 38 37 36 35 34 34 33 32 31 30 29 28 27 26 25 24 23 23 22 21 20 19 19 18 17 17 16 15 15 14 13 13 12 12 12 11 11 11 11 12 12 12 12 13 13 13 14 14 15 16 17 17 18 19 20 22 23 24 24 25 26 27 27 28 28 28 29 29 29 29 30 30 30 30 31 31 32 33 33 34 35 36 36 37 38
38 37 36 35 34 33 32 32 31 30 29 28 27 26 25 24 23 22 21 20 20 19 18 17 17 16 15 15 14 13 13 12 12 11 11 11 11 10 10 10 10 11 11 11 11 12 12 13 13 14 15 15 16 17 18 19 20 21 22 23 24 25 26 26 26 27 27 28 28 28 28 29 29 29 29 30 30 31 32 32 33 34 34 35 36 37
36 35 35 34 33 32 31 30 30 29 28 26 25 24 23 22 21 20 20 19 18 17 17 16 15 14 14 13 13 12 12 11 11 10 10 10 9 9 9 9 9 9 10 10 10 11 11 11 12 13 13 14 15 16 17 18 19 20 21 22 23 24 24 25 25 26 26 27 27 27 27 28 28 28 28 29 29 30 31 31 32 33 33 34 35 36
35 34 33 33 32 31 30 29 28 27 26 25 24 23 22 21 20 19 18 17 17 16 15 15 14 13 13 12 12 11 11 10 10 9 9 9 8 8 8 8 9 9 9 9 9 9 10 10 11 11 12 13 14 15 16 17 18 19 20 20 21 22 23 23 24 25 25 26 26 26 26 27 27 27 28 28 29 29 30 30 31 32 32 33 34 35
34 33 32 31 30 30 29 28 27 26 24 23 22 21 20 19 19 18 17 16 16 15 14 14 13 12 12 11 11 10 10 9 9 9 8 8 8 8 8 8 8 8 8 8 8 9 9 9 10 11 11 12 13 14 15 16 16 17 18 19 20 21 21 22 23 23 24 25 25 25 26 26 26 27 27 28 28 29 29 30 30 31 32 32 33 34
32 32 31 30 29 28 27 26 25 24 23 22 20 19 19 18 17 17 16 15 14 14 13 13 12 11 11 10 10 9 9 8 8 8 7 7 7 7 7 7 7 7 7 8 8 8 8 9 9 10 11 11 12 13 14 14 15 16 17 18 19 20 21 21 22 22 23 23 24 25 25 26 26 27 27 28 28 28 29 29 30 30 31 32 33 34
31 30 30 29 28 27 25 24 23 22 21 20 19 18 17 17 16 15 15 14 14 13 12 12 11 11 10 9 9 8 8 7 7 7 6 6 6 6 6 6 6 6 7 7 7 8 8 8 9 9 10 11 11 12 13 14 14 15 16 17 18 19 20 20 21 22 22 23 24 24 25 25 26 27 27 28 28 28 29 29 30 30 31 32 32 33
30 29 28 27 26 25 24 23 21 20 19 18 17 17 16 16 15 14 14 13 13 12 12 11 10 10 9 9 8 7 6 6 5 5 5 5 5 5 5 5 5 6 6 6 7 7 8 8 8 9 9 10 11 11 12 13 14 15 15 16 17 18 19 20 21 21 22 23 24 24 25 26 26 27 27 28 28 29 29 30 30 30 31 31 32 33
29 28 27 26 25 23 22 21 20 18 17 17 16 16 15 15 14 14 13 12 12 11 11 10 10 9 8 8 7 6 5 5 4 4 4 4 4 4 4 4 4 5 5 6 6 6 7 7 8 9 9 10 10 11 12 12 13 14 15 16 17 17 19 20 20 21 22 23 24 24 25 26 26 27 28 28 29 29 30 30 30 31 31 32 32 33
27 26 26 24 23 22 20 19 18 17 16 16 15 15 15 14 14 13 12 12 11 11 10 10 9 8 8 7 6 5 5 4 3 3 3 3 3 3 3 3 3 4 4 5 5 6 6 7 8 8 9 9 10 11 11 12 13 14 14 15 16 17 18 19 20 21 22 23 24 24 25 26 27 27 28 28 29 29 30 30 31 31 31 32 32 33
26 25 24 23 22 20 19 18 17 16 16 15 15 14 14 14 13 13 12 11 11 10 9 9 8 8 7 6 6 5 4 4 3 2 2 2 1 1 1 2 2 2 3 3 4 5 5 6 7 8 8 9 10 10 11 11 12 13 14 14 15 16 17 18 19 20 21 22 23 24 25 25 26 27 28 28 29 29 30 30 31 31 31 32 32 33
25 24 23 22 20 19 18 17 16 15 15 15 14 14 13 13 12 12 11 10 10 9 9 8 8 7 6 6 5 5 4 3 3 2 1 1 1 1 1 1 1 2 2 3 3 4 4 5 6 7 7 8 9 10 10 11 11 12 13 14 15 15 16 17 18 19 20 21 22 23 24 25 26 27 27 28 29 29 30 30 31 31 31 32 32 33
Wind_Direction
294 293 293 293 292 292 292 291 290 290 289 289 288 288 288 287 287 286 286 285 285 284 283 283 282 281 280 279 279 278 277 277 276 276 276 276 276 276 276 275 275 275 275 274 274 274 273 272 272 271 270 269 268 267 266 265 264 263 262 261 260 259 259 258 257 256 256 255 254 253 253 252 251 250 250 249 249 248 247 247 246 246 246 245 245 245
294 294 294 293 293 292 292 291 291 290 290 290 289 289 288 288 287 287 286 286 285 285 284 283 282 281 280 280 279 278 278 277 277 277 277 277 277 277 276 276 276 275 275 274 274 274 273 272 271 271 269 268 267 266 265 264 263 262 261 260 260 259 258 257 257 256 255 254 253 253 252 251 250 250 249 248 248 247 246 246 246 245 245 245 244 244
295 295 294 294 293 293 292 292 291 291 291 290 290 289 289 288 288 288 287 286 286 285 284 283 282 282 281 280 280 279 279 278 278 278 278 278 278 278 277 277 276 276 275 274 274 273 272 272 271 270 269 268 267 265 264 263 262 262 261 260 259 258 257 257 256 255 255 254 253 252 251 250 250 249 248 248 247 246 246 245 245 244 244 244 244 243
295 295 295 294 294 293 293 293 292 292 291 291 290 290 289 289 289 288 288 287 286 285 284 284 283 282 281 281 281 280 280 280 280 279 279 279 279 278 278 277 276 276 275 274 273 272 271 270 270 269 268 267 265 264 263 262 262 261 260 259 258 258 257 256 256 255 254 254 252 251 250 250 249 248 248 247 246 246 245 245 244 244 244 243 243 243
296 295 295 295 295 294 294 293 293 292 292 291 291 291 290 290 289 289 288 287 287 286 285 284 283 283 282 282 282 282 282 281 281 281 281 280 279 279 278 277 276 275 274 273 272 271 270 269 268 267 266 265 264 263 262 262 261 260 260 259 258 257 257 256 255 255 254 253 252 251 250 249 248 248 247 246 246 245 245 244 244 243 243 243 242 242
296 296 296 296 295 295 294 294 293 293 292 292 292 291 291 291 290 289 289 288 287 286 285 285 284 284 284 283 283 283 283 283 282 282 281 281 280 279 277 276 275 274 273 272 271 270 269 268 267 266 265 264 264 263 262 261 261 260 260 259 258 257 256 256 255 254 254 253 252 251 250 249 248 247 247 246 245 245 244 243 243 243 242 242 241 241
297 297 297 296 296 296 295 295 294 294 294 293 293 292 292 291 291 290 290 289 288 287 286 285 285 285 285 285 285 284 284 284 283 282 282 281 279 278 277 276 275 273 272 271 270 269 268 267 266 266 265 264 263 262 262 261 261 260 259 258 258 257 256 255 254 254 253 252 251 250 249 248 247 247 246 245 245 244 244 243 243 242 242 241 241 241
298 298 297 297 297 296 296 296 295 295 295 294 294 293 292 292 291 291 290 289 289 288 287 287 287 287 286 286 286 285 285 284 283 282 281 280 279 278 277 275 274 273 272 271 270 269 268 267 266 265 264 264 263 262 262 261 261 260 259 258 257 256 255 254 253 253 252 251 250 249 248 247 246 246 245 245 244 244 243 243 242 242 241 241 240 240
299 299 298 298 298 297 297 296 296 296 295 295 294 294 293 292 292 291 291 290 290 289 289 289 288 288 287 287 286 286 285 284 283 282 281 280 278 277 276 275 274 274 273 272 271 270 268 267 266 265 264 264 263 263 262 261 261 260 259 258 256 255 254 253 252 251 251 250 249 248 247 246 245 245 244 243 243 243 242 242 241 241 241 240 240 240
299 299 299 298 298 298 298 297 297 296 296 295 295 294 294 293 292 292 291 291 290 290 290 290 289 289 288 287 287 286 285 284 283 282 281 279 278 277 276 275 275 274 274 273 271 270 269 267 266 265 264 264 263 263 262 261 260 259 258 257 256 254 253 252 251 250 250 249 248 247 246 245 244 243 243 242 242 241 241 241 241 240 240 240 239 239
300 300 299 299 299 298 298 298 297 297 296 296 295 295 294 294 293 293 292 292 291 291 291 290 290 289 288 287 286 286 285 284 284 282 281 279 278 276 276 275 275 275 274 273 272 270 269 267 266 265 264 263 263 262 261 260 260 259 257 256 255 253 252 251 250 249 248 248 247 245 244 243 242 242 241 241 241 240 240 240 240 239 239 239 238 238
301 300 300 300 300 299 299 298 298 297 296 296 296 295 295 295 294 294 293 293 292 292 291 291 290 290 288 287 286 286 285 285 284 283 281 279 278 277 276 276 276 275 274 273 272 270 269 268 266 265 264 263 262 261 260 259 259 257 256 255 253 252 251 250 249 248 248 247 246 244 243 242 241 240 240 240 239 239 239 239 239 238 238 237 237 237
301 301 301 300 300 300 299 298 298 297 297 296 296 296 296 295 294 294 294 293 293 292 292 291 291 289 288 287 286 286 285 285 284 282 281 279 278 278 277 277 276 275 274 272 271 270 269 268 266 265 264 262 261 260 259 258 257 256 255 253 252 251 249 248 248 247 246 246 244 243 242 241 240 239 239 238 238 238 238 238 237 237 237 236 236 235
302 301 301 301 300 300 299 299 298 297 297 297 297 296 296 295 295 294 294 294 293 293 292 291 290 289 288 287 287 286 286 285 284 282 280 279 279 279 279 278 277 275 273 272 270 270 269 268 267 265 264 262 261 259 258 257 256 255 253 252 250 249 248 247 246 245 245 244 242 241 240 239 238 237 237 237 237 236 236 236 236 236 235 235 235 234
302 302 302 301 301 300 299 299 298 298 297 297 297 296 296 295 295 294 294 294 293 293 292 291 290 289 288 287 287 287 286 285 283 281 280 280 280 280 279 278 276 274 273 272 271 270 269 268 266 265 263 262 260 259 257 256 255 253 252 250 249 247 246 245 244 243 242 241 240 238 237 237 236 236 235 235 235 235 234 235 234 234 234 234 234 233
303 303 302 301 301 300 300 299 299 298 298 298 297 297 296 295 295 294 294 294 293 293 292 291 290 289 288 288 287 287 286 284 282 281 281 280 280 280 279 277 275 274 273 272 271 270 269 267 266 264 262 261 260 258 256 255 253 252 250 249 247 246 244 243 242 241 239 238 237 236 235 234 234 234 233 233 233 233 233 233 233 233 233 232 232 232
304 303 302 302 301 301 300 299 299 299 298 298 297 297 296 295 295 294 294 294 293 293 292 291 290 289 289 289 288 287 286 284 282 281 281 280 280 279 278 276 275 274 273 273 271 270 268 266 265 263 262 260 259 257 255 253 252 250 248 247 245 244 243 241 240 238 237 235 234 233 233 232 232 232 232 231 231 231 231 231 231 231 231 231 231 231
304 303 302 302 301 301 300 300 299 299 299 298 298 297 296 296 295 295 295 294 293 293 292 291 290 290 289 289 288 288 286 285 283 282 281 280 279 278 277 276 275 274 273 272 271 269 267 266 264 262 261 259 258 256 254 252 250 248 247 245 244 242 240 239 237 236 234 233 231 231 230 230 230 230 229 229 229 229 230 230 230 230 230 230 229 229
304 303 303 302 302 302 301 301 300 300 299 299 298 297 297 296 296 295 295 295 294 293 292 291 291 290 289 289 288 287 286 285 284 282 281 280 279 278 277 276 275 274 273 272 270 268 267 265 263 262 260 258 256 254 252 251 249 247 245 243 241 240 238 236 235 233 231 230 229 228 228 228 227 227 227 227 227 227 227 228 228 228 228 228 228 228
305 304 303 303 302 302 302 301 301 300 300 299 299 298 297 297 297 296 296 295 294 294 293 292 291 291 290 289 288 287 286 285 284 283 282 280 279 278 277 276 275 274 272 271 269 268 266 264 262 261 258 257 255 253 251 249 247 245 243 241 239 238 236 234 232 230 229 228 227 226 226 225 225 225 225 225 225 225 226 226 226 226 226 227 227 227
305 304 304 304 303 303 302 301 301 300 300 300 299 298 298 298 297 297 297 296 295 294 294 293 292 291 290 289 288 287 287 286 284 283 282 281 280 279 278 276 275 274 272 271 269 267 266 263 261 259 257 255 253 251 249 247 246 243 242 240 238 236 234 232 230 229 227 226 225 225 224 224 224 224 224 225 225 225 225 225 225 225 225 225 225 225
306 305 305 304 304 303 303 302 301 301 300 300 299 299 298 298 298 298 298 297 296 295 294 293 292 291 290 289 289 288 287 286 285 284 283 282 281 279 278 277 275 274 272 270 269 267 265 263 260 258 256 254 252 250 248 246 244 242 240 238 236 234 232 231 229 228 226 225 225 224 224 224 224 224 224 225 225 225 225 225 224 224 224 224 224 224
306 306 305 305 304 303 303 302 302 301 301 300 300 299 299 299 299 298 298 297 296 295 294 293 293 292 291 290 289 288 288 287 286 285 284 283 281 280 279 277 276 274 272 270 268 266 264 261 259 257 255 252 250 248 246 245 243 241 239 237 235 233 232 230 229 227 226 225 224 224 224 224 224 224 225 225 225 225 225 225 225 225 224 224 224 223
306 306 305 305 304 304 303 303 302 302 302 301 301 300 300 299 299 299 298 297 296 295 295 294 293 292 291 291 290 289 289 288 287 286 285 284 282 281 279 278 276 274 272 270 268 265 263 261 258 256 253 251 249 247 245 243 242 240 238 236 235 233 231 230 229 227 226 225 225 224 224 224 224 224 225 225 225 225 225 225 226 225 225 225 224 224
307 306 306 305 305 304 304 303 303 302 302 302 301 301 301 300 300 299 298 297 296 296 295 294 294 293 292 291 291 290 289 289 288 286 285 284 283 281 280 278 276 274 272 270 267 265 262 259 257 254 252 249 247 245 243 242 240 238 237 235 234 232 231 230 228 227 226 225 225 224 224 224 225 225 225 225 225 226 226 226 226 226 226 226 226 225
307 306 306 305 305 304 304 304 303 303 302 302 302 301 301 301 300 299 298 297 296 296 295 295 294 293 293 292 291 291 290 289 288 287 286 285 283 281 280 278 276 274 271 269 266 264 261 258 255 253 250 248 246 243 241 240 238 237 235 234 232 231 230 229 228 227 226 225 225 225 225 225 225 226 226 226 226 226 226 227 227 227 227 227 227 226
307 307 306 306 305 305 304 304 304 303 303 302 302 301 301 301 300 299 299 298 297 296 296 295 295 294 293 293 292 292 291 290 289 288 286 285 284 282 280 278 276 273 271 268 266 263 260 257 254 251 248 246 244 241 240 238 236 235 233 232 231 230 229 228 227 226 226 225 225 225 225 225 226 226 226 226 227 227 227 227 227 227 227 227 227 227
307 307 306 306 306 305 305 305 304 304 303 303 302 302 301 301 301 300 299 298 298 297 296 296 296 295 295 294 293 293 292 291 290 288 287 285 284 282 280 278 276 273 270 267 265 261 259 255 253 250 247 244 242 240 238 236 235 233 232 231 230 229 228 227 226 226 226 225 225 225 225 226 226 226 226 227 227 227 227 228 228 228 228 228 227 227
308 307 307 307 306 306 305 305 305 304 304 303 302 302 302 301 301 300 300 299 299 298 297 297 296 296 295 295 294 294 292 291 290 289 287 286 284 282 281 278 276 273 270 267 264 260 257 254 251 248 245 243 241 239 237 235 234 232 231 230 229 228 227 226 226 226 225 225 225 225 225 226 226 226 227 227 227 228 228 228 228 228 228 228 227 227
308 308 307 307 307 306 306 305 305 305 304 303 303 302 302 302 301 301 300 300 300 299 299 298 297 297 297 296 295 294 293 292 290 289 288 286 284 282 281 279 276 273 270 266 263 259 255 252 249 246 244 241 240 238 236 234 233 232 230 229 228 228 227 226 226 225 225 225 225 225 225 225 226 226 227 227 227 228 228 228 228 228 228 227 227 226
309 308 308 308 307 307 306 306 305 305 304 304 304 303 303 303 302 302 302 301 301 300 300 299 299 298 298 297 296 295 293 292 290 289 288 286 284 282 280 278 276 272 269 265 260 257 253 250 247 244 242 240 238 237 235 234 233 231 230 229 228 227 226 226 226 225 225 225 225 225 225 225 226 226 227 227 227 228 228 228 228 227 227 226 226 225
309 309 308 308 308 307 307 306 306 305 305 305 304 304 304 304 304 303 303 302 302 302 301 300 300 299 298 297 296 295 294 292 291 290 288 286 284 281 279 277 274 271 267 263 258 254 250 247 245 242 240 238 236 235 234 233 232 230 229 228 228 227 226 226 225 225 225 225 225 225 225 225 226 226 227 227 227 228 228 228 227 227 226 225 225 224
309 309 308 308 308 307 307 307 307 306 306 306 305 305 305 305 305 304 304 304 303 303 302 301 300 300 299 298 297 295 294 292 291 290 289 286 284 281 279 275 272 268 265 261 256 252 248 245 242 240 237 235 234 233 232 230 230 229 228 227 227 226 226 225 225 225 225 225 225 225 225 226 226 226 227 227 227 227 227 227 226 226 225 225 224 223
309 309 309 308 308 308 307 307 307 307 307 307 307 307 306 306 306 305 305 304 304 303 302 301 301 300 299 298 297 295 294 293 291 290 289 287 284 281 278 275 270 266 262 258 254 250 246 243 240 237 235 233 232 230 229 228 227 226 226 226 225 225 225 225 225 225 225 225 225 225 225 226 226 226 227 227 227 227 227 226 226 225 225 224 224 223
309 309 309 309 308 308 308 308 308 308 308 308 308 308 307 307 307 306 305 305 304 303 302 301 300 300 299 298 297 296 294 293 292 291 289 287 285 282 278 274 270 265 261 256 252 248 244 242 239 236 233 231 229 228 226 225 224 224 224 224 224 224 224 224 224 225 225 225 225 226 226 226 226 226 227 227 226 226 226 226 225 225 225 224 224 223
310 309 309 309 309 309 309 309 309 309 309 309 309 308 308 308 307 306 306 305 304 303 302 301 300 300 299 298 297 296 295 294 293 291 290 287 284 281 278 274 269 264 260 256 251 247 244 241 238 235 232 229 227 225 224 223 222 222 222 222 222 222 222 223 223 224 224 225 225 226 226 226 226 226 226 226 226 226 225 225 225 225 224 224 224 223
310 310 310 310 310 310 310 309 310 309 309 309 309 309 308 308 307 307 306 305 304 303 302 301 300 300 299 298 296 296 295 294 293 292 290 287 284 281 277 273 268 264 260 255 251 247 244 241 238 235 232 228 226 224 222 221 221 220 220 220 220 220 221 221 222 223 223 224 225 225 226 226 226 226 226 226 225 225 225 225 224 224 224 223 223 222
311 311 310 311 311 311 310 311 310 310 310 310 310 309 309 308 308 307 306 305 304 303 301 301 300 299 298 297 296 296 295 294 293 292 290 288 285 281 277 272 268 264 259 255 251 248 244 240 237 234 231 228 225 223 221 220 219 218 219 219 219 219 219 220 220 221 222 223 223 224 225 225 225 225 225 225 225 224 224 224 223 223 222 222 221 220
312 311 311 311 312 312 312 311 311 311 311 310 310 310 309 309 308 307 306 305 304 302 301 300 299 299 298 297 297 296 296 295 294 292 290 288 284 281 276 272 268 264 260 255 251 247 243 240 236 232 229 227 224 222 221 219 218 218 218 218 218 218 218 219 219 220 220 221 221 222 223 223 224 224 224 224 224 223 223 223 222 221 221 220 220 219
312 312 313 313 313 313 313 312 312 312 312 311 311 310 310 309 308 307 306 305 304 303 302 300 300 299 298 298 297 297 296 295 294 292 290 287 284 281 277 272 268 264 260 256 251 247 243 239 235 232 229 225 223 221 220 219 218 218 217 217 217 217 218 218 218 218 218 219 219 220 221 221 221 222 222 222 222 222 222 221 221 220 220 219 218 218
313 314 314 314 314 314 314 313 313 313 312 312 312 311 310 310 309 308 307 306 305 303 302 301 300 299 299 298 297 297 296 295 293 291 289 287 284 280 277 272 268 263 258 254 250 246 242 238 234 231 227 225 222 220 219 218 217 217 216 216 216 217 217 217 217 217 217 217 218 218 218 219 219 219 219 220 220 220 220 220 220 219 219 218 217 217
314 315 315 315 315 315 315 314 314 314 313 313 312 312 311 310 309 308 308 307 306 304 304 302 302 300 300 299 298 297 296 294 292 291 289 286 284 279 275 272 267 262 257 253 248 245 240 236 232 228 225 223 221 219 218 217 216 215 215 215 215 216 216 216 216 216 216 216 216 216 216 216 216 216 216 217 217 218 218 218 218 218 217 217 217 216
315 316 316 316 316 316 316 315 315 314 314 313 313 312 312 311 311 310 309 308 307 306 306 305 303 303 302 301 300 298 297 295 293 291 289 286 283 279 275 271 266 261 256 251 246 241 237 233 229 226 223 221 219 217 216 215 214 213 213 213 213 214 214 215 215 215 214 214 214 214 214 214 213 213 213 214 214 215 215 216 216 216 216 216 215 215
317 317 317 317 317 317 316 316 315 315 314 314 313 313 313 313 312 312 311 310 310 309 308 308 306 305 304 303 303 302 299 297 295 292 290 287 283 280 274 270 265 260 254 249 244 239 234 230 226 223 220 218 217 215 214 213 212 212 211 211 211 212 212 213 213 213 213 213 212 212 212 212 211 211 211 211 211 212 212 213 213 213 213 214 213 213
318 318 318 318 317 317 316 315 315 315 314 314 314 314 315 315 314 315 313 313 313 312 312 311 310 309 308 306 306 304 302 300 298 295 292 288 284 280 274 270 265 259 252 248 242 237 231 227 223 220 218 216 214 213 212 212 211 210 210 209 209 210 210 210 210 210 210 210 210 210 210 209 209 209 209 209 209 209 210 210 210 211 211 211 211 211
318 318 318 318 317 317 316 316 315 315 315 315 316 316 317 317 317 317 316 316 316 316 315 315 314 313 312 310 308 307 305 303 301 297 294 290 284 279 274 269 263 257 251 246 240 235 230 225 221 218 216 214 213 211 211 210 210 209 208 208 207 207 207 207 207 207 208 208 207 207 207 207 207 207 207 207 207 207 207 208 208 208 209 209 209 209
319 319 318 318 317 316 316 316 316 316 317 317 318 319 320 320 320 320 319 319 320 319 319 318 317 315 314 313 310 309 307 304 303 298 294 289 284 279 273 267 261 256 249 244 240 234 229 225 221 217 214 212 210 210 210 209 208 207 207 207 206 206 206 205 205 205 205 205 205 205 205 205 204 205 205 205 205 205 205 206 206 206 206 207 207 208
318 318 317 317 316 316 316 316 317 317 318 320 321 322 322 322 323 323 323 323 322 322 322 321 319 318 316 314 312 311 307 305 302 297 292 285 282 276 270 264 259 254 248 242 237 232 228 224 220 217 213 210 209 208 208 207 207 206 206 206 205 205 204 204 204 203 203 203 203 203 203 203 203 203 203 203 203 204 203 204 204 204 205 205 205 206
318 317 317 316 316 316 316 317 318 320 322 323 324 325 325 325 325 325 325 325 325 325 324 323 321 319 318 316 315 312 310 304 301 296 289 281 276 270 263 260 256 251 245 241 237 230 226 222 219 216 214 211 209 207 206 206 205 205 205 205 205 205 205 204 204 203 202 202 201 201 201 201 202 202 202 202 202 202 202 202 202 203 203 204 204 205
318 317 316 316 315 316 317 319 321 323 324 325 326 326 326 326 326 326 326 327 327 327 325 323 321 320 319 319 317 316 314 310 306 295 285 273 265 252 248 240 243 240 239 232 230 226 222 220 217 215 213 211 208 206 205 205 204 204 204 204 204 204 204 204 204 203 202 201 201 201 201 201 201 201 201 201 201 201 201 201 201 202 202 203 203 203
316 316 315 315 315 317 319 321 323 325 326 326 326 326 326 326 326 326 326 327 327 327 326 323 320 321 321 321 320 320 319 316 315 309 296 276 239 212 185 184 195 204 208 216 216 216 216 213 212 211 210 210 209 207 205 204 203 203 203 203 203 204 204 204 204 203 202 202 201 200 200 200 200 200 200 201 200 200 201 201 200 201 201 201 202 202
Height
10273 10267 10260 10255 10250 10245 10240 10233 10227 10223 10218 10213 10209 10205 10202 10198 10195 10191 10188 10185 10181 10177 10174 10170 10167 10164 10160 10158 10155 10152 10150 10147 10144 10142 10140 10139 10138 10138 10138 10138 10138 10137 10137 10136 10136 10136 10136 10137 10137 10138 10138 10138 10140 10140 10141 10142 10142 10144 10146 10148 10150 10151 10152 10153 10155 10158 10160 10163 10167 10169 10172 10175 10178 10180 10183 10187 10190 10192 10196 10199 10202 10205 10207 10210 10214 10217
10258 10252 10245 10239 10234 10230 10225 10218 10213 10208 10204 10200 10196 10193 10190 10187 10183 10180 10177 10173 10170 10166 10162 10158 10155 10152 10148 10145 10143 10141 10139 10137 10135 10133 10132 10131 10130 10130 10130 10130 10129 10128 10128 10127 10127 10126 10126 10126 10126 10126 10127 10128 10129 10130 10129 10130 10131 10133 10135 10137 10139 10140 10142 10143 10145 10147 10150 10153 10157 10160 10163 10165 10168 10170 10173 10177 10180 10183 10185 10188 10192 10194 10197 10201 10205 10208
10243 10237 10230 10224 10220 10216 10211 10205 10199 10195 10191 10187 10184 10182 10178 10175 10172 10169 10166 10163 10159 10155 10151 10147 10143 10139 10137 10134 10132 10131 10129 10128 10127 10125 10124 10123 10122 10121 10120 10120 10119 10118 10118 10117 10117 10116 10115 10115 10115 10115 10115 10117 10118 10118 10117 10118 10120 10122 10124 10126 10128 10130 10132 10133 10135 10138 10141 10143 10147 10150 10153 10156 10158 10161 10163 10167 10170 10173 10176 10179 10182 10185 10188 10192 10196 10200
10228 10223 10217 10211 10207 10203 10198 10193 10188 10183 10179 10176 10173 10170 10167 10164 10161 10158 10155 10152 10148 10144 10140 10136 10132 10128 10126 10124 10123 10122 10120 10119 10118 10117 10116 10114 10113 10112 10110 10110 10109 10108 10108 10107 10106 10105 10105 10105 10104 10104 10105 10105 10105 10105 10107 10107 10109 10111 10113 10116 10118 10120 10122 10123 10125 10128 10131 10134 10137 10141 10143 10146 10148 10152 10154 10157 10160 10163 10167 10170 10173 10176 10180 10183 10187 10192
10215 10210 10204 10199 10194 10190 10185 10182 10177 10172 10168 10165 10163 10160 10157 10153 10150 10148 10145 10142 10137 10133 10129 10125 10122 10119 10117 10115 10113 10112 10112 10110 10109 10108 10107 10105 10103 10102 10100 10099 10098 10097 10097 10096 10095 10095 10094 10094 10093 10093 10093 10093 10093 10094 10095 10097 10098 10100 10103 10106 10108 10111 10113 10114 10116 10118 10122 10125 10128 10132 10135 10137 10140 10142 10145 10148 10151 10154 10158 10161 10164 10167 10171 10175 10178 10182
10202 10198 10193 10188 10182 10178 10173 10169 10165 10161 10157 10155 10153 10150 10147 10143 10140 10137 10134 10130 10126 10122 10119 10116 10113 10110 10108 10106 10105 10103 10103 10102 10100 10099 10097 10095 10093 10091 10090 10088 10087 10087 10086 10085 10085 10085 10085 10084 10083 10083 10083 10083 10083 10083 10085 10087 10088 10091 10093 10096 10099 10102 10104 10105 10107 10110 10113 10116 10120 10123 10126 10128 10131 10133 10136 10139 10142 10146 10149 10152 10155 10159 10162 10167 10170 10174
10190 10186 10182 10177 10172 10167 10163 10158 10154 10150 10147 10145 10143 10140 10137 10133 10130 10126 10123 10119 10115 10112 10108 10107 10104 10102 10100 10097 10096 10095 10094 10093 10092 10090 10088 10085 10083 10080 10078 10077 10076 10076 10075 10075 10075 10075 10075 10074 10073 10073 10073 10073 10073 10073 10075 10077 10079 10082 10085 10087 10090 10092 10095 10097 10098 10101 10104 10107 10111 10114 10117 10120 10122 10125 10128 10132 10135 10138 10142 10145 10148 10151 10155 10158 10162 10167
10178 10175 10172 10167 10162 10157 10152 10148 10145 10140 10136 10133 10132 10130 10127 10123 10120 10117 10113 10109 10105 10101 10098 10097 10096 10094 10092 10088 10087 10086 10085 10085 10083 10081 10078 10075 10072 10070 10068 10066 10065 10065 10065 10065 10065 10065 10065 10065 10064 10064 10064 10063 10063 10065 10066 10068 10070 10073 10076 10078 10080 10083 10085 10087 10089 10092 10095 10098 10102 10105 10108 10111 10115 10118 10122 10125 10128 10131 10134 10137 10140 10143 10147 10151 10155 10159
10168 10164 10160 10157 10152 10147 10142 10138 10135 10132 10127 10123 10121 10118 10115 10113 10110 10108 10105 10100 10096 10092 10089 10088 10087 10085 10083 10080 10078 10077 10076 10075 10074 10072 10069 10065 10062 10060 10057 10056 10055 10055 10056 10056 10056 10056 10055 10055 10055 10055 10055 10055 10055 10057 10058 10060 10062 10065 10067 10069 10071 10074 10077 10078 10080 10083 10086 10090 10093 10097 10100 10103 10107 10110 10114 10117 10120 10123 10127 10130 10133 10137 10140 10144 10147 10152
10158 10155 10150 10146 10142 10137 10133 10129 10125 10122 10118 10114 10111 10108 10105 10103 10100 10098 10097 10093 10089 10084 10080 10078 10077 10077 10075 10072 10070 10068 10067 10066 10065 10062 10059 10056 10053 10050 10048 10047 10047 10047 10047 10047 10047 10047 10047 10046 10047 10047 10047 10047 10047 10048 10050 10052 10054 10056 10058 10060 10063 10065 10068 10070 10072 10075 10078 10081 10085 10088 10092 10096 10100 10103 10106 10109 10112 10115 10118 10122 10125 10129 10133 10137 10141 10145
10149 10145 10141 10137 10132 10128 10125 10120 10117 10113 10109 10105 10102 10100 10097 10093 10090 10088 10087 10085 10082 10078 10073 10070 10068 10067 10065 10063 10062 10060 10058 10057 10055 10053 10049 10046 10043 10042 10040 10040 10040 10040 10039 10038 10037 10037 10037 10037 10038 10038 10038 10039 10040 10040 10042 10043 10045 10048 10050 10053 10055 10057 10060 10062 10064 10067 10070 10073 10077 10081 10085 10089 10092 10095 10098 10100 10103 10107 10111 10114 10118 10122 10126 10130 10134 10138
10140 10136 10132 10128 10124 10120 10116 10112 10108 10104 10100 10097 10093 10090 10087 10084 10080 10078 10077 10076 10073 10070 10067 10064 10060 10057 10055 10053 10053 10053 10051 10049 10046 10043 10039 10035 10033 10033 10033 10034 10034 10033 10032 10030 10028 10028 10028 10028 10029 10030 10031 10031 10032 10033 10033 10035 10037 10040 10042 10045 10047 10049 10052 10054 10057 10059 10062 10067 10070 10074 10078 10081 10084 10087 10090 10092 10096 10100 10103 10107 10111 10115 10119 10123 10127 10130
10132 10128 10124 10120 10116 10112 10107 10103 10099 10096 10092 10089 10085 10082 10079 10076 10072 10070 10068 10067 10065 10062 10060 10057 10053 10049 10045 10043 10043 10045 10045 10042 10038 10034 10029 10026 10025 10025 10027 10027 10027 10025 10023 10021 10020 10019 10020 10020 10021 10022 10023 10023 10024 10025 10026 10028 10030 10032 10034 10037 10039 10042 10044 10047 10050 10053 10057 10060 10063 10067 10070 10073 10076 10078 10082 10085 10089 10093 10096 10100 10104 10108 10112 10115 10119 10123
10125 10120 10116 10112 10108 10103 10098 10094 10091 10088 10085 10081 10078 10075 10072 10068 10065 10062 10060 10058 10057 10055 10052 10050 10045 10041 10037 10034 10035 10037 10037 10035 10031 10025 10021 10018 10018 10019 10020 10020 10018 10016 10013 10013 10012 10012 10013 10013 10014 10014 10015 10015 10016 10018 10019 10020 10022 10024 10026 10028 10031 10034 10037 10040 10043 10046 10049 10053 10057 10060 10063 10065 10068 10071 10074 10078 10082 10085 10089 10093 10097 10102 10105 10109 10113 10117
10117 10112 10108 10103 10099 10095 10090 10085 10082 10080 10077 10074 10070 10067 10064 10061 10058 10055 10053 10051 10050 10047 10044 10041 10037 10033 10028 10027 10027 10029 10030 10028 10023 10018 10013 10012 10012 10013 10013 10012 10010 10007 10006 10005 10006 10007 10007 10007 10007 10007 10007 10008 10009 10010 10012 10014 10015 10017 10019 10022 10024 10027 10029 10032 10035 10039 10042 10045 10048 10052 10055 10057 10060 10063 10067 10071 10075 10078 10082 10086 10090 10095 10098 10102 10106 10110
10108 10103 10098 10095 10091 10087 10082 10077 10074 10072 10070 10067 10063 10060 10057 10053 10050 10048 10047 10044 10042 10040 10037 10033 10029 10025 10022 10020 10020 10022 10022 10020 10016 10011 10008 10007 10006 10007 10006 10004 10002 10000 9999 10000 10000 10000 10000 10000 10000 10000 10000 10002 10003 10004 10006 10008 10009 10011 10013 10015 10017 10019 10022 10025 10028 10032 10035 10038 10041 10044 10047 10050 10053 10057 10060 10063 10067 10071 10075 10079 10083 10087 10092 10095 10100 10103
10100 10095 10090 10087 10083 10079 10075 10070 10067 10064 10062 10059 10056 10053 10049 10046 10043 10042 10040 10037 10035 10032 10029 10026 10022 10019 10015 10013 10012 10013 10013 10012 10009 10005 10003 10001 10000 10000 9999 9997 9995 9994 9994 9994 9994 9994 9994 9994 9994 9994 9995 9996 9997 9998 10000 10002 10003 10005 10007 10008 10010 10013 10016 10018 10022 10025 10028 10031 10034 10037 10040 10043 10047 10050 10053 10058 10062 10065 10069 10073 10077 10080 10085 10088 10093 10097
10092 10087 10082 10078 10076 10072 10068 10063 10060 10057 10055 10052 10049 10045 10042 10038 10036 10034 10033 10030 10028 10025 10022 10019 10017 10013 10010 10007 10005 10005 10005 10004 10002 10000 9998 9996 9995 9993 9993 9992 9990 9989 9989 9988 9988 9988 9988 9988 9989 9989 9990 9990 9992 9993 9994 9995 9997 9998 10000 10003 10005 10007 10010 10013 10016 10019 10022 10025 10027 10030 10033 10037 10040 10044 10048 10052 10056 10060 10063 10067 10071 10075 10078 10082 10086 10090
10084 10079 10074 10070 10068 10065 10062 10057 10053 10050 10047 10045 10042 10038 10034 10031 10028 10027 10025 10023 10021 10018 10016 10013 10010 10007 10005 10002 10000 9998 9998 9997 9996 9994 9992 9991 9989 9988 9987 9987 9985 9985 9984 9983 9983 9983 9983 9983 9984 9985 9985 9986 9987 9988 9988 9990 9991 9993 9995 9997 10000 10002 10005 10008 10010 10013 10016 10018 10022 10025 10028 10031 10034 10038 10042 10045 10048 10053 10057 10060 10064 10068 10072 10076 10080 10084
10076 10072 10067 10063 10061 10058 10055 10050 10046 10042 10040 10037 10035 10031 10027 10024 10022 10020 10018 10016 10014 10012 10009 10007 10004 10001 9999 9997 9995 9993 9992 9991 9990 9988 9987 9986 9984 9983 9982 9982 9981 9980 9980 9979 9978 9978 9978 9978 9978 9979 9980 9980 9982 9982 9983 9985 9987 9988 9990 9993 9995 9997 10000 10002 10005 10008 10010 10013 10016 10019 10022 10025 10028 10032 10035 10038 10041 10045 10050 10053 10058 10062 10067 10070 10074 10078
10068 10065 10060 10057 10053 10051 10048 10043 10039 10036 10033 10030 10027 10023 10020 10018 10015 10013 10012 10010 10008 10005 10002 10000 9998 9996 9993 9992 9989 9988 9987 9986 9985 9983 9982 9980 9979 9978 9978 9977 9977 9977 9975 9975 9974 9974 9974 9975 9975 9975 9975 9976 9977 9978 9979 9980 9982 9984 9986 9988 9990 9993 9995 9997 9999 10002 10005 10008 10011 10013 10017 10019 10022 10025 10028 10032 10036 10040 10043 10048 10052 10057 10060 10065 10068 10072
10060 10057 10053 10050 10046 10043 10040 10036 10032 10028 10026 10023 10020 10017 10014 10012 10011 10009 10007 10003 10000 9998 9995 9994 9992 9990 9988 9987 9984 9983 9982 9980 9979 9978 9977 9976 9975 9973 9973 9973 9973 9972 9970 9970 9970 9970 9970 9970 9970 9970 9971 9972 9973 9973 9975 9976 9978 9980 9982 9983 9986 9988 9991 9993 9995 9997 10000 10003 10007 10009 10012 10015 10018 10022 10025 10028 10032 10036 10040 10043 10047 10051 10055 10058 10062 10066
10053 10050 10047 10042 10038 10035 10032 10028 10026 10023 10020 10017 10013 10011 10008 10008 10007 10003 10000 9997 9994 9992 9990 9988 9987 9985 9983 9982 9980 9978 9977 9975 9974 9973 9972 9971 9970 9969 9969 9968 9968 9967 9966 9965 9966 9966 9966 9966 9966 9967 9967 9968 9968 9970 9971 9972 9973 9975 9978 9980 9982 9985 9987 9989 9992 9994 9997 10000 10003 10006 10009 10013 10015 10018 10022 10025 10028 10032 10035 10038 10042 10045 10049 10053 10056 10060
10046 10043 10040 10035 10032 10028 10025 10023 10020 10017 10014 10010 10007 10005 10003 10002 10000 9997 9995 9992 9988 9987 9984 9983 9982 9980 9978 9977 9975 9974 9973 9971 9970 9968 9968 9967 9966 9965 9965 9964 9963 9962 9962 9962 9962 9962 9962 9962 9962 9963 9963 9964 9965 9966 9967 9968 9970 9972 9974 9977 9979 9981 9983 9986 9988 9992 9994 9997 10000 10003 10007 10009 10012 10015 10018 10021 10025 10028 10031 10034 10038 10041 10045 10048 10052 10055
10039 10036 10033 10029 10026 10023 10020 10018 10015 10012 10008 10005 10002 9999 9997 9995 9993 9992 9989 9987 9983 9982 9980 9978 9977 9975 9973 9973 9972 9970 9968 9967 9966 9965 9964 9963 9962 9961 9960 9960 9959 9958 9958 9958 9958 9958 9958 9958 9959 9960 9960 9960 9962 9963 9964 9965 9967 9969 9972 9973 9976 9978 9981 9984 9987 9989 9992 9995 9997 10000 10003 10005 10008 10011 10014 10017 10020 10023 10027 10030 10034 10037 10040 10044 10047 10051
10033 10030 10027 10024 10021 10018 10015 10012 10008 10005 10003 10000 9997 9994 9992 9990 9988 9986 9984 9982 9979 9977 9975 9973 9972 9971 9970 9968 9967 9967 9965 9963 9963 9962 9961 9960 9958 9957 9957 9956 9956 9955 9955 9955 9955 9955 9955 9956 9956 9957 9957 9957 9958 9960 9961 9963 9965 9967 9968 9971 9973 9976 9978 9982 9984 9987 9989 9992 9994 9997 10000 10002 10005 10008 10011 10014 10017 10020 10023 10027 10030 10033 10037 10040 10044 10048
10028 10025 10022 10018 10015 10012 10009 10006 10003 10000 9998 9995 9992 9990 9987 9985 9983 9981 9979 9977 9975 9973 9971 9970 9968 9967 9966 9965 9964 9963 9962 9960 9960 9958 9957 9956 9955 9954 9953 9953 9953 9952 9952 9952 9952 9952 9953 9953 9953 9953 9954 9955 9956 9957 9959 9960 9962 9964 9967 9969 9972 9974 9977 9979 9982 9984 9987 9990 9992 9995 9997 10000 10003 10006 10008 10012 10015 10017 10020 10023 10027 10030 10033 10037 10041 10045
10022 10019 10016 10013 10010 10007 10003 10001 9998 9996 9993 9991 9988 9986 9983 9981 9979 9977 9975 9973 9971 9969 9967 9965 9964 9963 9962 9961 9960 9960 9958 9957 9956 9955 9953 9953 9952 9952 9950 9950 9950 9950 9950 9950 9950 9950 9950 9951 9951 9952 9952 9953 9954 9955 9957 9958 9960 9962 9965 9967 9970 9972 9975 9977 9980 9982 9985 9988 9990 9993 9996 9998 10001 10004 10007 10009 10012 10015 10018 10021 10024 10028 10031 10035 10038 10042
10016 10013 10010 10007 10005 10002 9998 9996 9993 9992 9989 9987 9984 9982 9979 9977 9975 9973 9970 9968 9967 9965 9963 9962 9961 9960 9958 9958 9957 9956 9955 9954 9952 9952 9951 9950 9950 9948 9948 9947 9947 9947 9947 9947 9947 9948 9948 9949 9949 9950 9950 9952 9953 9954 9955 9957 9959 9961 9963 9966 9968 9971 9973 9976 9978 9981 9983 9986 9989 9992 9994 9997 10000 10002 10005 10007 10010 10013 10017 10019 10022 10026 10029 10033 10036 10039
10010 10008 10005 10002 10000 9997 9994 9992 9989 9987 9985 9983 9980 9978 9975 9973 9972 9969 9967 9965 9964 9962 9960 9959 9958 9957 9956 9955 9954 9953 9952 9951 9950 9949 9948 9948 9947 9946 9945 9945 9945 9945 9945 9945 9945 9946 9946 9947 9948 9948 9949 9950 9951 9953 9954 9956 9958 9960 9963 9965 9968 9970 9973 9975 9977 9980 9982 9985 9987 9990 9993 9995 9998 10000 10003 10006 10008 10011 10014 10017 10020 10023 10027 10030 10033 10037
10005 10003 10000 9998 9995 9992 9990 9987 9985 9983 9981 9978 9977 9974 9972 9970 9968 9966 9964 9963 9961 9960 9958 9957 9955 9954 9953 9953 9952 9950 9949 9948 9947 9947 9947 9946 9945 9944 9943 9943 9943 9943 9943 9943 9944 9944 9944 9945 9946 9947 9948 9949 9950 9952 9953 9955 9957 9960 9962 9965 9967 9969 9972 9974 9977 9979 9982 9984 9986 9988 9992 9994 9997 9998 10001 10004 10007 10009 10012 10015 10018 10022 10025 10028 10031 10033
10001 9998 9996 9993 9991 9988 9986 9983 9982 9979 9977 9975 9973 9971 9969 9967 9965 9963 9962 9960 9958 9957 9956 9954 9953 9952 9951 9950 9950 9948 9947 9946 9945 9945 9945 9944 9943 9942 9942 9942 9942 9942 9942 9942 9943 9943 9943 9943 9945 9945 9947 9948 9950 9952 9953 9955 9957 9960 9962 9964 9966 9968 9971 9973 9975 9978 9980 9983 9985 9987 9990 9992 9995 9997 9999 10002 10004 10007 10010 10013 10017 10020 10022 10025 10027 10030
9997 9995 9992 9990 9987 9985 9982 9980 9978 9975 9973 9972 9970 9968 9966 9964 9962 9960 9958 9957 9956 9955 9953 9952 9950 9949 9948 9948 9947 9946 9945 9944 9943 9943 9943 9943 9942 9941 9940 9940 9940 9940 9940 9940 9941 9942 9942 9943 9943 9945 9946 9948 9950 9952 9953 9955 9957 9959 9961 9963 9965 9967 9970 9972 9974 9977 9979 9982 9983 9986 9988 9990 9993 9995 9997 10000 10002 10005 10008 10011 10013 10017 10019 10022 10024 10027
9993 9991 9988 9986 9983 9982 9979 9977 9975 9973 9970 9968 9967 9965 9963 9962 9960 9958 9957 9955 9953 9952 9951 9950 9949 9948 9947 9945 9945 9944 9943 9942 9942 9942 9941 9941 9940 9940 9939 9939 9939 9939 9939 9940 9940 9940 9942 9942 9943 9944 9945 9947 9949 9951 9953 9955 9957 9958 9960 9962 9965 9967 9969 9971 9973 9975 9978 9980 9982 9985 9987 9989 9991 9993 9996 9998 10001 10003 10006 10008 10011 10013 10016 10018 10021 10023
9990 9987 9985 9983 9981 9978 9976 9974 9972 9970 9968 9966 9964 9962 9961 9959 9957 9956 9954 9953 9952 9950 9949 9948 9947 9946 9945 9944 9943 9942 9942 9941 9940 9940 9940 9940 9939 9938 9938 9938 9938 9938 9938 9938 9939 9940 9941 9942 9942 9943 9945 9947 9949 9951 9953 9954 9956 9958 9960 9962 9963 9966 9968 9970 9972 9974 9977 9978 9980 9983 9985 9987 9989 9992 9994 9997 9999 10002 10004 10007 10009 10012 10013 10016 10018 10021
9987 9985 9982 9980 9978 9976 9973 9972 9970 9967 9965 9963 9962 9960 9958 9957 9955 9953 9952 9951 9950 9948 9947 9946 9945 9944 9943 9943 9942 9941 9940 9939 9939 9938 9938 9938 9938 9938 9937 9937 9937 9937 9938 9938 9938 9940 9940 9941 9942 9943 9945 9947 9949 9950 9952 9953 9955 9957 9959 9961 9963 9965 9967 9968 9971 9973 9975 9977 9978 9981 9983 9985 9988 9990 9993 9996 9998 10001 10003 10005 10007 10009 10011 10013 10016 10018
9983 9982 9979 9977 9975 9973 9971 9969 9967 9965 9963 9962 9960 9958 9957 9955 9953 9952 9950 9949 9948 9947 9945 9944 9943 9942 9942 9941 9940 9940 9938 9938 9937 9937 9937 9937 9937 9937 9937 9936 9936 9937 9937 9937 9938 9938 9939 9940 9942 9943 9945 9947 9948 9950 9951 9953 9955 9957 9958 9960 9962 9963 9965 9967 9969 9971 9973 9975 9977 9979 9982 9985 9987 9989 9992 9995 9997 9999 10001 10003 10005 10007 10008 10012 10014 10017
9981 9978 9977 9975 9972 9971 9969 9967 9965 9963 9962 9960 9958 9956 9955 9953 9952 9950 9949 9948 9947 9945 9944 9943 9942 9941 9940 9940 9938 9938 9937 9937 9936 9936 9935 9935 9935 9936 9936 9935 9935 9935 9936 9937 9937 9938 9939 9940 9942 9943 9944 9946 9948 9949 9950 9952 9954 9955 9957 9958 9960 9962 9964 9966 9968 9970 9972 9974 9976 9978 9981 9983 9985 9987 9989 9992 9993 9995 9997 10000 10003 10005 10007 10011 10013 10015
9978 9976 9974 9972 9970 9968 9967 9965 9963 9962 9960 9958 9956 9955 9953 9952 9950 9949 9948 9947 9945 9944 9943 9942 9940 9940 9938 9938 9937 9937 9936 9935 9935 9935 9935 9935 9935 9935 9935 9935 9935 9935 9935 9935 9937 9938 9939 9940 9942 9942 9944 9945 9947 9948 9950 9952 9953 9955 9956 9958 9959 9961 9963 9965 9967 9968 9970 9973 9975 9978 9979 9981 9983 9985 9987 9988 9990 9992 9995 9997 10000 10002 10004 10008 10011 10013
9975 9973 9972 9970 9968 9967 9965 9963 9961 9960 9958 9956 9955 9953 9952 9950 9949 9948 9946 9945 9944 9943 9942 9940 9940 9938 9938 9937 9936 9935 9935 9935 9934 9934 9933 9933 9933 9933 9933 9933 9933 9934 9935 9935 9937 9938 9938 9939 9940 9942 9943 9944 9946 9947 9949 9950 9952 9953 9955 9957 9958 9959 9961 9963 9965 9967 9970 9972 9973 9975 9977 9978 9980 9983 9985 9987 9988 9990 9993 9995 9998 10000 10002 10005 10008 10010
9973 9972 9970 9968 9966 9965 9963 9961 9960 9958 9957 9955 9953 9952 9950 9949 9948 9947 9945 9944 9943 9942 9940 9940 9938 9938 9937 9936 9935 9935 9934 9933 9933 9933 9933 9933 9933 9932 9933 9933 9933 9934 9935 9935 9936 9937 9938 9938 9939 9940 9942 9943 9945 9947 9948 9949 9951 9952 9954 9955 9957 9958 9960 9962 9963 9966 9968 9970 9972 9973 9975 9977 9978 9981 9983 9985 9987 9989 9991 9993 9996 9998 10001 10003 10005 10008
9971 9969 9968 9966 9964 9963 9961 9960 9958 9957 9955 9954 9952 9951 9950 9948 9947 9945 9945 9943 9942 9941 9940 9939 9938 9937 9937 9935 9935 9934 9933 9933 9933 9932 9932 9932 9932 9932 9933 9933 9933 9933 9934 9934 9935 9935 9936 9937 9938 9940 9941 9942 9944 9945 9947 9948 9950 9951 9952 9953 9955 9957 9958 9960 9962 9964 9967 9968 9970 9971 9973 9975 9977 9979 9982 9983 9985 9987 9989 9992 9994 9997 9999 10002 10005 10007
9969 9968 9966 9965 9963 9962 9960 9958 9957 9955 9954 9953 9952 9950 9948 9947 9946 9945 9944 9943 9942 9940 9939 9938 9937 9937 9936 9935 9934 9934 9933 9933 9932 9932 9932 9932 9932 9932 9932 9932 9932 9932 9932 9933 9933 9935 9935 9937 9938 9939 9940 9942 9943 9944 9945 9947 9948 9950 9951 9953 9954 9955 9957 9958 9960 9963 9965 9966 9968 9969 9972 9973 9975 9977 9980 9982 9983 9986 9988 9990 9992 9995 9998 10001 10003 10005
9967 9966 9964 9963 9962 9960 9958 9957 9956 9955 9953 9952 9950 9949 9948 9947 9945 9945 9943 9942 9941 9940 9939 9938 9937 9937 9935 9935 9934 9933 9933 9932 9932 9932 9932 9932 9932 9932 9932 9932 9932 9932 9932 9933 9933 9934 9935 9936 9937 9938 9939 9940 9942 9943 9944 9945 9947 9948 9950 9952 9953 9955 9956 9957 9959 9961 9963 9964 9966 9968 9970 9972 9974 9976 9978 9980 9982 9984 9987 9989 9992 9993 9997 9999 10002 10004
9965 9964 9963 9962 9960 9959 9957 9956 9955 9953 9952 9951 9950 9948 9947 9946 9945 9944 9943 9942 9940 9940 9938 9938 9937 9936 9935 9935 9934 9933 9933 9932 9932 9932 9932 9932 9932 9932 9932 9932 9932 9932 9932 9933 9933 9934 9935 9935 9936 9937 9938 9939 9940 9942 9943 9944 9946 9947 9948 9950 9952 9953 9955 9956 9958 9960 9961 9963 9965 9967 9968 9970 9973 9975 9977 9978 9980 9983 9985 9987 9990 9992 9995 9997 10000 10002
9964 9963 9962 9960 9959 9958 9957 9955 9954 9953 9952 9950 9949 9948 9947 9945 9944 9943 9942 9941 9940 9939 9938 9937 9937 9936 9935 9935 9933 9933 9932 9932 9932 9932 9932 9932 9931 9931 9931 9932 9932 9932 9932 9932 9933 9933 9934 9935 9935 9937 9937 9938 9940 9940 9942 9943 9945 9946 9948 9949 9950 9952 9953 9955 9957 9958 9960 9962 9963 9965 9967 9969 9971 9973 9975 9977 9979 9981 9983 9986 9988 9991 9993 9996 9998 10000
9962 9961 9960 9959 9958 9957 9955 9954 9953 9952 9951 9950 9948 9947 9946 9945 9943 9943 9942 9941 9940 9939 9938 9937 9937 9936 9935 9934 9933 9933 9932 9932 9932 9931 9931 9931 9931 9931 9931 9931 9932 9932 9932 9932 9932 9933 9933 9934 9935 9936 9937 9938 9939 9940 9941 9942 9944 9945 9947 9948 9950 9951 9952 9954 9955 9957 9958 9960 9962 9963 9965 9967 9969 9972 9973 9975 9977 9980 9982 9984 9987 9989 9992 9995 9997 9999
9961 9960 9959 9958 9957 9956 9955 9953 9952 9951 9950 9949 9948 9947 9945 9944 9943 9942 9941 9940 9940 9939 9938 9937 9937 9935 9935 9934 9933 9933 9932 9932 9932 9931 9931 9931 9931 9931 9931 9931 9932 9932 9932 9932 9932 9933 9933 9933 9935 9935 9937 9937 9938 9940 9940 9942 9943 9944 9945 9947 9948 9950 9952 9953 9954 9955 9957 9958 9960 9962 9963 9965 9968 9970 9972 9973 9976 9978 9980 9983 9985 9988 9990 9993 9995 9998
9960 9959 9958 9957 9956 9955 9953 9952 9952 9950 9949 9948 9947 9946 9945 9944 9943 9942 9941 9940 9940 9938 9938 9937 9937 9935 9935 9934 9933 9932 9932 9932 9931 9931 9930 9930 9930 9931 9931 9931 9932 9932 9932 9932 9932 9933 9933 9933 9934 9935 9936 9937 9938 9939 9940 9941 9942 9943 9945 9946 9948 9949 9950 9952 9953 9955 9956 9957 9959 9960 9962 9964 9966 9968 9970 9972 9974 9977 9979 9982 9984 9987 9989 9992 9994 9997
9959 9958 9957 9956 9955 9954 9953 9952 9950 9950 9948 9947 9947 9945 9945 9943 9943 9942 9941 9940 9939 9938 9938 9937 9937 9935 9935 9933 9933 9932 9932 9932 9931 9930 9930 9930 9930 9930 9931 9931 9931 9932 9932 9932 9932 9932 9933 9933 9934 9935 9936 9937 9938 9938 9940 9940 9942 9943 9944 9945 9947 9948 9950 9951 9953 9954 9955 9957 9958 9960 9962 9963 9965 9967 9969 9971 9973 9975 9978 9980 9983 9985 9988 9990 9993 9995
9958 9957 9957 9955 9954 9953 9952 9951 9950 9949 9948 9947 9946 9945 9944 9943 9942 9942 9941 9940 9940 9938 9938 9937 9937 9935 9935 9933 9933 9933 9932 9932 9931 9931 9931 9930 9930 9930 9931 9931 9931 9932 9932 9932 9932 9933 9933 9933 9934 9935 9936 9937 9937 9938 9939 9940 9942 9943 9944 9945 9947 9948 9949 9951 9952 9953 9955 9956 9958 9960 9961 9963 9965 9967 9968 9970 9972 9974 9977 9979 9982 9984 9987 9989 9992 9994